GW5028 Weather Reports


time (UTC)temp
C
wind
direction
speed
KPH
gust
KPH
rain 1hr
cm
rain 24hr
cm
rain mn
cm
humidity
%
barometer
mb
20260906105815 21 153 0.0 0.0 0.00 0.00 0.00 99 1014.6
20260906105311 21 160 0.0 0.0 0.00 0.00 0.00 99 1014.6
20260906104806 21 150 0.0 0.0 0.00 0.00 0.00 99 1014.7
20260906104305 21 149 0.0 0.0 0.00 0.00 0.00 99 1014.6
20260906103803 21 151 0.0 0.0 0.00 0.00 0.00 99 1014.7
20260906103303 21 134 0.0 0.0 0.00 0.00 0.00 99 1014.6
20260906102800 21 151 0.0 0.0 0.00 0.00 0.00 99 1014.5
20260906102258 21 154 0.0 0.0 0.00 0.00 0.00 99 1014.6
20260906101754 21 153 0.0 0.0 0.00 0.00 0.00 99 1014.4
20260906101253 21 152 0.0 0.0 0.00 0.00 0.00 99 1014.5
20260906100749 21 152 0.0 0.0 0.00 0.00 0.00 99 1014.3
20260906100248 21 151 0.0 0.0 0.00 0.00 0.00 99 1014.2
20260906095744 21 150 0.0 0.0 0.00 0.00 0.00 99 1014.1
20260906095239 21 150 0.0 0.0 0.00 0.00 0.00 99 1014.1
20260906094738 21 150 0.0 0.0 0.00 0.00 0.00 99 1014.2
20260906094233 20 147 0.0 0.0 0.00 0.00 0.00 99 1014.0
20260906093730 20 152 0.0 0.0 0.00 0.00 0.00 99 1014.1
20260906093225 20 152 0.0 0.0 0.00 0.00 0.00 99 1014.2
20260906092721 20 152 0.0 0.0 0.00 0.00 0.00 99 1014.3
20260906092220 20 152 0.0 0.0 0.00 0.00 0.00 99 1014.1
20260906091716 20 151 0.0 0.0 0.00 0.00 0.00 99 1013.9
20260906091212 20 150 0.0 0.0 0.00 0.00 0.00 99 1013.8
20260906090708 20 150 0.0 0.0 0.00 0.00 0.00 99 1013.6
20260906090207 20 150 0.0 0.0 0.00 0.00 0.00 99 1013.9
20260906085707 20 150 0.0 0.0 0.00 0.00 0.00 99 1014.1
20260906085206 20 153 0.0 0.0 0.00 0.00 0.00 99 1013.8
20260906084700 20 153 0.0 0.0 0.00 0.00 0.00 99 1013.5
20260906084155 20 153 0.0 0.0 0.00 0.00 0.00 99 1013.7
20260906083650 20 153 0.0 0.0 0.00 0.00 0.00 99 1013.7
20260906083145 20 150 0.0 0.0 0.00 0.00 0.00 99 1013.5
20260906082640 20 147 0.0 0.0 0.00 0.00 0.00 99 1013.6
20260906082136 20 150 0.0 0.0 0.00 0.00 0.00 99 1013.5
20260906081631 20 150 0.0 0.0 0.00 0.00 0.00 99 1013.4
20260906081127 20 155 0.0 0.0 0.00 0.00 0.00 99 1013.3
20260906080623 20 156 0.0 0.0 0.00 0.00 0.00 99 1013.4
20260906080119 20 159 0.0 0.0 0.00 0.00 0.00 99 1013.2
20260906075618 20 159 0.0 0.0 0.00 0.00 0.00 99 1013.3
20260906075113 20 159 0.0 0.0 0.00 0.00 0.00 99 1013.2
20260906074608 20 156 0.0 0.0 0.00 0.00 0.00 99 1013.2
20260906074108 20 150 0.0 0.0 0.00 0.00 0.00 99 1013.4
20260906073608 20 150 0.0 0.0 0.00 0.00 0.00 99 1013.2
20260906073104 20 148 0.0 0.0 0.00 0.00 0.00 99 1013.2
20260906072558 20 147 0.0 0.0 0.00 0.00 0.00 99 1013.3
20260906072055 20 148 0.0 0.0 0.00 0.00 0.00 99 1013.3
20260906071551 21 148 0.0 0.0 0.00 0.00 0.00 99 1013.5
20260906071051 21 148 0.0 0.0 0.00 0.00 0.00 99 1013.5
20260906070548 21 146 0.0 0.0 0.00 0.00 0.00 99 1013.5
20260906070043 21 148 0.0 0.0 0.00 0.00 0.00 99 1013.6
20260906065542 21 158 0.0 3.2 0.00 0.00 0.00 99 1013.7
20260906065038 20 151 0.0 0.0 0.00 0.00 0.00 99 1013.6
20260906064534 21 152 0.0 0.0 0.00 0.00 0.00 99 1013.8
20260906064028 21 147 0.0 0.0 0.00 0.00 0.00 99 1013.8
20260906063524 21 147 0.0 0.0 0.00 0.00 0.00 99 1013.9
20260906063019 20 157 0.0 0.0 0.00 0.00 0.00 99 1014.1
20260906062515 21 152 0.0 0.0 0.00 0.00 0.00 99 1013.9
20260906062009 21 148 0.0 0.0 0.00 0.00 0.00 99 1014.0
20260906061506 21 143 0.0 0.0 0.00 0.00 0.00 99 1014.0
20260906061005 21 157 0.0 0.0 0.00 0.00 0.00 99 1013.9
20260906060502 21 158 0.0 0.0 0.00 0.00 0.00 99 1013.9
20260906055958 21 160 0.0 0.0 0.00 0.00 0.00 99 1013.9
20260906055454 21 156 0.0 0.0 0.00 0.00 0.00 99 1013.9
20260906054949 21 159 0.0 0.0 0.00 0.00 0.00 98 1014.1
20260906054443 21 150 0.0 0.0 0.00 0.00 0.00 98 1014.0
20260906053939 21 138 1.6 3.2 0.00 0.00 0.00 98 1014.0
20260906053435 21 142 0.0 0.0 0.00 0.00 0.00 98 1014.0
20260906052931 21 155 0.0 0.0 0.00 0.00 0.00 98 1013.8
20260906052427 21 156 0.0 0.0 0.00 0.00 0.00 98 1013.8
20260906051924 21 152 0.0 0.0 0.00 0.00 0.00 98 1013.8
20260906051424 21 132 3.2 3.2 0.00 0.00 0.00 98 1014.0
20260906050919 21 159 0.0 0.0 0.00 0.00 0.00 98 1013.9
20260906050419 21 161 0.0 0.0 0.00 0.00 0.00 98 1014.0
20260906045918 21 148 0.0 0.0 0.00 0.00 0.00 98 1013.8
20260906045417 21 158 0.0 0.0 0.00 0.00 0.00 98 1014.0
20260906044913 21 176 0.0 0.0 0.00 0.00 0.00 98 1014.0
20260906044413 21 146 0.0 0.0 0.00 0.00 0.00 99 1013.8
20260906043909 21 159 0.0 0.0 0.00 0.00 0.00 99 1014.0
20260906043405 21 160 0.0 0.0 0.00 0.00 0.00 99 1014.1
20260906042900 21 154 0.0 0.0 0.00 0.00 0.00 99 1014.1
20260906042359 21 154 0.0 0.0 0.00 0.00 0.00 98 1013.9
20260906041855 21 154 0.0 0.0 0.00 0.00 0.00 99 1014.2
20260906041351 21 151 0.0 0.0 0.00 0.00 0.00 99 1014.1
20260906040851 21 151 0.0 0.0 0.00 0.00 0.00 99 1014.5
20260906040346 21 153 0.0 0.0 0.00 0.00 0.00 99 1014.3
20260906035841 21 155 0.0 0.0 0.00 0.00 0.00 99 1014.4
20260906035336 21 154 0.0 0.0 0.00 0.00 0.00 98 1014.4
20260906034832 21 159 0.0 0.0 0.00 0.00 0.00 98 1014.4
20260906034327 22 153 0.0 0.0 0.00 0.00 0.00 98 1014.5
20260906033822 22 153 0.0 0.0 0.00 0.00 0.00 98 1014.3
20260906033321 22 157 0.0 0.0 0.00 0.00 0.00 98 1014.4
20260906032818 22 157 0.0 0.0 0.00 0.00 0.00 98 1014.3
20260906032314 22 157 0.0 0.0 0.00 0.00 0.00 98 1014.3
20260906031809 22 154 0.0 0.0 0.00 0.00 0.00 98 1014.4
20260906031304 22 156 0.0 0.0 0.00 0.00 0.00 97 1014.3
20260906030804 22 156 0.0 0.0 0.00 0.00 0.00 97 1014.3
20260906030259 22 156 0.0 0.0 0.00 0.00 0.00 97 1014.4
20260906025758 22 156 0.0 0.0 0.00 0.00 0.00 97 1014.3
20260906025253 22 158 0.0 0.0 0.00 0.00 0.00 97 1014.3
20260906024752 22 161 0.0 0.0 0.00 0.00 0.00 97 1014.1
20260906024251 22 159 0.0 0.0 0.00 0.00 0.00 98 1014.4
20260906023747 22 157 0.0 1.6 0.00 0.00 0.00 97 1014.3
20260906023242 22 151 0.0 0.0 0.00 0.00 0.00 98 1014.3
20260906022738 22 144 0.0 1.6 0.00 0.00 0.00 98 1014.4
20260906022233 22 157 0.0 0.0 0.00 0.00 0.00 97 1014.2
20260906021729 22 150 0.0 0.0 0.00 0.00 0.00 97 1014.2
20260906021227 22 151 0.0 0.0 0.00 0.00 0.00 97 1014.3
20260906020722 22 151 0.0 0.0 0.00 0.00 0.00 97 1014.2
20260906020217 22 151 0.0 0.0 0.00 0.00 0.00 97 1014.0
20260906015712 22 151 0.0 0.0 0.00 0.00 0.00 97 1014.0
20260906015210 22 153 0.0 0.0 0.00 0.00 0.00 97 1014.2
20260906014704 22 154 0.0 0.0 0.00 0.00 0.00 97 1013.9
20260906014200 22 148 0.0 0.0 0.00 0.00 0.00 96 1014.0
20260906013656 22 143 0.0 0.0 0.00 0.00 0.00 96 1014.1
20260906013151 22 151 0.0 0.0 0.00 0.00 0.00 96 1014.3
20260906012651 22 157 0.0 0.0 0.00 0.00 0.00 96 1014.1
20260906012151 22 150 0.0 0.0 0.00 0.00 0.00 96 1013.7
20260906011647 22 156 0.0 0.0 0.00 0.00 0.00 96 1013.8
20260906011142 22 160 0.0 0.0 0.00 0.00 0.00 96 1013.7
20260906010637 22 151 0.0 0.0 0.00 0.00 0.00 95 1013.6
20260906010133 22 148 0.0 0.0 0.00 0.00 0.00 95 1013.7
20260906005633 22 151 0.0 0.0 0.00 0.00 0.00 94 1013.6
20260906005132 23 163 0.0 0.0 0.00 0.00 0.00 94 1013.6
20260906004632 23 150 0.0 0.0 0.00 0.00 0.00 94 1013.6
20260906004127 23 157 0.0 0.0 0.00 0.00 0.00 94 1013.6
20260906003622 23 147 0.0 0.0 0.00 0.00 0.00 93 1013.5
20260906003118 23 151 0.0 0.0 0.00 0.00 0.00 93 1013.5
20260906002613 23 151 0.0 0.0 0.00 0.00 0.00 93 1013.2
20260906002107 23 151 0.0 0.0 0.00 0.00 0.00 92 1013.1
20260906001602 23 154 0.0 0.0 0.00 0.00 0.00 92 1013.3
20260906001057 23 157 0.0 0.0 0.00 0.00 0.00 91 1013.1
20260906000553 23 151 0.0 0.0 0.00 0.00 0.00 90 1013.1
20260906000048 24 151 0.0 0.0 0.00 0.00 0.00 89 1013.3
20260905235547 24 151 0.0 0.0 0.00 0.00 0.00 88 1013.1
20260905235043 25 154 0.0 0.0 0.00 0.00 0.00 87 1013.0
20260905234538 25 154 0.0 0.0 0.00 0.00 0.00 86 1013.2
20260905234033 25 151 0.0 0.0 0.00 0.00 0.00 85 1013.2
20260905233532 25 154 0.0 0.0 0.00 0.00 0.00 84 1013.2
20260905233027 26 156 0.0 0.0 0.00 0.00 0.00 82 1013.4
20260905232522 26 157 0.0 0.0 0.00 0.00 0.00 81 1013.2
20260905232018 26 160 0.0 0.0 0.00 0.00 0.00 80 1013.0
20260905231513 27 161 0.0 0.0 0.00 0.00 0.00 80 1013.0
20260905231010 27 161 0.0 0.0 0.00 0.00 0.00 77 1013.0
20260905230508 27 157 0.0 1.6 0.00 0.00 0.00 77 1013.0
20260905230007 27 167 0.0 0.0 0.00 0.00 0.00 75 1013.0
20260905225502 27 163 0.0 0.0 0.00 0.00 0.00 75 1012.9
20260905224957 28 166 1.6 1.6 0.00 0.00 0.00 72 1013.2
20260905224452 28 180 1.6 3.2 0.00 0.00 0.00 71 1013.0
20260905223951 28 161 0.0 3.2 0.00 0.00 0.00 71 1013.1
20260905223449 28 165 0.0 4.8 0.00 0.00 0.00 70 1013.1
20260905222944 29 152 1.6 1.6 0.00 0.00 0.00 69 1013.0
20260905222444 28 171 1.6 1.6 0.00 0.00 0.00 71 1013.3
20260905221939 27 178 1.6 3.2 0.00 0.00 0.00 73 1013.1
20260905221436 28 164 3.2 3.2 0.00 0.00 0.00 73 1013.1
20260905220932 28 162 3.2 4.8 0.00 0.00 0.00 72 1013.2
20260905220428 28 200 4.8 4.8 0.00 0.00 0.00 69 1013.1
20260905215927 27 158 0.0 3.2 0.00 0.00 0.00 73 1013.1
20260905215422 27 181 1.6 4.8 0.00 0.00 0.00 74 1013.2
20260905214919 27 215 6.4 6.4 0.00 0.00 0.00 73 1013.4
20260905214414 27 253 3.2 4.8 0.00 0.00 0.00 73 1013.3
20260905213913 26 217 3.2 3.2 0.00 0.00 0.00 75 1013.3
20260905213410 26 160 1.6 4.8 0.00 0.00 0.00 76 1013.3
20260905212906 26 183 1.6 3.2 0.00 0.00 0.00 77 1013.2
20260905212400 26 172 3.2 6.4 0.00 0.00 0.00 77 1013.4
20260905211859 26 180 1.6 4.8 0.00 0.00 0.00 77 1013.4
20260905211355 26 256 4.8 9.7 0.00 0.00 0.00 78 1013.6
20260905210851 26 234 3.2 4.8 0.00 0.00 0.00 76 1013.5
20260905210350 26 174 3.2 4.8 0.00 0.00 0.00 77 1013.5
20260905205849 26 190 1.6 4.8 0.00 0.00 0.00 76 1013.6
20260905205344 26 230 6.4 9.7 0.00 0.00 0.00 77 1013.5
20260905204844 26 288 6.4 12.9 0.00 0.00 0.00 78 1013.6
20260905204340 26 157 0.0 6.4 0.00 0.00 0.00 77 1013.4
20260905203838 26 161 4.8 6.4 0.00 0.00 0.00 77 1013.5
20260905203335 26 272 6.4 9.7 0.00 0.00 0.00 78 1013.5
20260905202830 27 274 8.0 9.7 0.00 0.00 0.00 76 1013.3
20260905202325 27 122 3.2 4.8 0.00 0.00 0.00 77 1013.4
20260905201821 27 246 6.4 14.5 0.00 0.00 0.00 76 1013.5
20260905201316 27 195 3.2 11.3 0.00 0.00 0.00 75 1013.3
20260905200810 27 219 3.2 4.8 0.00 0.00 0.00 75 1013.6
20260905200306 27 188 1.6 4.8 0.00 0.00 0.00 74 1013.4
20260905195804 27 200 3.2 6.4 0.00 0.00 0.00 74 1013.3
20260905195259 26 171 1.6 3.2 0.00 0.00 0.00 77 1013.1
20260905194755 26 171 1.6 3.2 0.00 0.00 0.00 79 1013.3
20260905194254 26 157 3.2 4.8 0.00 0.00 0.00 81 1013.6
20260905193754 26 185 1.6 1.6 0.00 0.00 0.00 79 1013.8
20260905193249 25 178 3.2 3.2 0.00 0.00 0.00 81 1014.0
20260905192744 25 214 3.2 4.8 0.00 0.00 0.00 82 1014.2
20260905192241 25 196 1.6 6.4 0.00 0.00 0.00 82 1014.3
20260905191740 25 170 1.6 6.4 0.00 0.00 0.00 81 1014.1
20260905191238 25 156 1.6 3.2 0.00 0.00 0.00 83 1014.1
20260905190737 25 181 3.2 6.4 0.00 0.00 0.00 84 1014.2
20260905190236 25 191 3.2 4.8 0.00 0.00 0.00 83 1013.5
20260905185735 25 192 3.2 3.2 0.00 0.00 0.00 83 1013.0
20260905185230 24 148 0.0 0.0 0.00 0.00 0.00 84 1012.4
20260905184725 24 167 0.0 0.0 0.00 0.00 0.00 85 1012.3
20260905184224 24 162 0.0 1.6 0.00 0.00 0.00 85 1012.3
20260905183718 24 168 0.0 1.6 0.00 0.00 0.00 85 1013.0
20260905183213 25 250 1.6 9.7 0.00 0.00 0.00 84 1013.6
20260905182712 25 175 3.2 4.8 0.00 0.00 0.00 79 1013.8
20260905182212 26 150 4.8 6.4 0.00 0.00 0.00 74 1014.3
20260905181708 26 182 3.2 4.8 0.00 0.00 0.00 68 1014.1
20260905181206 26 198 1.6 4.8 0.00 0.00 0.00 70 1014.2
20260905180701 27 85 3.2 6.4 0.00 0.00 0.00 66 1013.6
20260905180157 28 73 1.6 11.3 0.00 0.00 0.00 62 1014.1
20260905175655 30 94 3.2 9.7 0.00 0.00 0.00 57 1014.4
20260905175151 31 192 4.8 16.1 0.00 0.00 0.00 57 1014.4
20260905174647 32 290 8.0 11.3 0.00 0.00 0.00 62 1013.8
20260905174142 32 148 1.6 6.4 0.00 0.00 0.00 61 1014.0
20260905173638 33 105 3.2 4.8 0.00 0.00 0.00 60 1013.8
20260905173134 33 125 6.4 6.4 0.00 0.00 0.00 58 1013.8
20260905172632 34 149 3.2 11.3 0.00 0.00 0.00 58 1014.3
20260905172127 34 315 6.4 11.3 0.00 0.00 0.00 56 1014.5
20260905171623 34 320 4.8 6.4 0.00 0.00 0.00 57 1014.3
20260905171119 34 265 6.4 12.9 0.00 0.00 0.00 56 1014.7
20260905170616 34 249 6.4 16.1 0.00 0.00 0.00 58 1014.6
20260905170111 34 316 11.3 16.1 0.00 0.00 0.00 56 1014.8
20260905165605 34 258 11.3 16.1 0.00 0.00 0.00 57 1014.8
20260905165101 34 224 8.0 11.3 0.00 0.00 0.00 55 1014.8
20260905164555 34 314 3.2 4.8 0.00 0.00 0.00 55 1014.8
20260905164049 34 269 8.0 12.9 0.00 0.00 0.00 57 1014.9
20260905163546 34 170 1.6 16.1 0.00 0.00 0.00 56 1014.9
20260905163041 35 85 3.2 4.8 0.00 0.00 0.00 54 1015.1
20260905162538 35 217 4.8 6.4 0.00 0.00 0.00 56 1015.1
20260905162037 33 235 11.3 11.3 0.00 0.00 0.00 58 1015.0
20260905161532 33 191 6.4 11.3 0.00 0.00 0.00 61 1014.9
20260905161030 33 120 3.2 9.7 0.00 0.00 0.00 61 1015.0
20260905160528 33 174 4.8 9.7 0.00 0.00 0.00 64 1015.0
20260905160028 33 166 0.0 4.8 0.00 0.00 0.00 63 1015.1
20260905155528 32 49 1.6 6.4 0.00 0.00 0.00 64 1015.3
20260905155026 32 146 3.2 9.7 0.00 0.00 0.00 64 1015.4
20260905154522 32 179 0.0 3.2 0.00 0.00 0.00 63 1015.3
20260905154017 32 177 3.2 9.7 0.00 0.00 0.00 66 1015.4
20260905153513 32 274 8.0 11.3 0.00 0.00 0.00 65 1015.5
20260905153013 32 177 0.0 3.2 0.00 0.00 0.00 65 1015.3
20260905152513 32 164 3.2 9.7 0.00 0.00 0.00 65 1015.2
20260905152008 31 167 1.6 9.7 0.00 0.00 0.00 66 1015.3
20260905151503 31 285 4.8 6.4 0.00 0.00 0.00 65 1015.4
20260905150958 31 180 3.2 9.7 0.00 0.00 0.00 66 1015.4
20260905150453 31 218 4.8 9.7 0.00 0.00 0.00 67 1015.3
20260905145950 31 176 1.6 9.7 0.00 0.00 0.00 71 1015.3
20260905145445 31 224 3.2 9.7 0.00 0.00 0.00 71 1015.4
20260905144944 30 167 3.2 6.4 0.00 0.00 0.00 73 1015.5
20260905144440 30 162 1.6 4.8 0.00 0.00 0.00 73 1015.4
20260905143939 30 204 4.8 6.4 0.00 0.00 0.00 74 1015.6
20260905143432 29 158 0.0 3.2 0.00 0.00 0.00 75 1015.5
20260905142932 28 169 3.2 6.4 0.00 0.00 0.00 75 1015.5
20260905142431 28 168 1.6 4.8 0.00 0.00 0.00 75 1015.4
20260905141927 28 192 3.2 4.8 0.00 0.00 0.00 75 1015.4
20260905141422 28 176 1.6 6.4 0.00 0.00 0.00 78 1015.4
20260905140918 28 174 1.6 6.4 0.00 0.00 0.00 77 1015.3
20260905140413 27 158 0.0 4.8 0.00 0.00 0.00 79 1015.3
20260905135912 27 273 4.8 6.4 0.00 0.00 0.00 80 1015.2
20260905135408 27 185 4.8 6.4 0.00 0.00 0.00 80 1015.4
20260905134903 27 185 1.6 6.4 0.00 0.00 0.00 79 1015.2
20260905134401 27 189 3.2 4.8 0.00 0.00 0.00 80 1015.4
20260905133856 27 223 3.2 4.8 0.00 0.00 0.00 80 1015.3
20260905133351 26 164 3.2 4.8 0.00 0.00 0.00 82 1015.5
20260905132851 26 124 1.6 3.2 0.00 0.00 0.00 85 1015.2
20260905132347 26 173 1.6 3.2 0.00 0.00 0.00 85 1015.3
20260905131846 26 198 3.2 4.8 0.00 0.00 0.00 85 1015.4
20260905131342 25 167 1.6 4.8 0.00 0.00 0.00 84 1015.4
20260905130837 25 172 0.0 1.6 0.00 0.00 0.00 86 1015.4
20260905130335 25 256 3.2 3.2 0.00 0.00 0.00 86 1015.6
20260905125832 25 176 1.6 3.2 0.00 0.00 0.00 87 1015.6
20260905125332 25 160 1.6 4.8 0.00 0.00 0.00 87 1015.7
20260905124828 24 247 3.2 4.8 0.00 0.00 0.00 88 1015.5
20260905124324 24 155 0.0 1.6 0.00 0.00 0.00 89 1015.6
20260905123824 23 153 0.0 1.6 0.00 0.00 0.00 89 1015.5
20260905123321 23 191 3.2 4.8 0.00 0.00 0.00 89 1015.5
20260905122820 23 229 3.2 4.8 0.00 0.00 0.00 90 1015.6
20260905122320 23 161 0.0 0.0 0.00 0.00 0.00 91 1015.6
20260905121815 23 161 0.0 0.0 0.00 0.00 0.00 92 1015.6
20260905121312 22 168 0.0 0.0 0.00 0.00 0.00 94 1015.6
20260905120810 22 150 0.0 0.0 0.00 0.00 0.00 96 1015.5
20260905120305 22 158 0.0 0.0 0.00 0.00 0.00 97 1015.6
20260905115800 22 159 0.0 0.0 0.00 0.00 0.00 98 1015.3
20260905115300 22 165 0.0 0.0 0.00 0.00 0.00 98 1015.4
20260905114800 22 157 0.0 0.0 0.00 0.00 0.00 99 1015.3
20260905114259 22 152 0.0 0.0 0.00 0.00 0.00 99 1015.0
20260905113758 22 159 0.0 0.0 0.00 0.00 0.00 99 1015.1
20260905113254 21 156 0.0 0.0 0.00 0.00 0.00 99 1014.9
20260905112749 21 165 0.0 1.6 0.00 0.00 0.00 99 1014.9
20260905112249 21 208 0.0 1.6 0.00 0.00 0.00 99 1014.8
20260905111744 21 167 1.6 3.2 0.00 0.00 0.00 99 1015.0
20260905111238 21 165 0.0 3.2 0.00 0.00 0.00 99 1014.8
20260905110738 21 128 0.0 0.0 0.00 0.00 0.00 99 1014.8
20260905110232 21 164 0.0 0.0 0.00 0.00 0.00 99 1014.9